Regional Weather Roundup
Issued by NWS Charleston, SC

Current Version | Previous Version | Graphics & Text | Print | Product List | Glossary On
Versions: 1 2 3 4 5 6 7 8 9 10 11 12 13 14 15 16 17 18 19 20 21 22 23 24 25 26 27 28 29 30 31 32 33 34 35 36 37 38 39 40 41 42 43 44 45 46 47 48 49 50
000 ASUS42 KCHS 291212 RWRCHS REGIONAL WEATHER ROUNDUP NATIONAL WEATHER SERVICE CHARLESTON SC 800 AM EDT SAT AUG 29 2015 NOTE: "FAIR" INDICATES FEW OR NO CLOUDS BELOW 12,000 FEET WITH NO SIGNIFICANT WEATHER AND/OR OBSTRUCTIONS TO VISIBILITY. NOT ALL STATIONS ARE QUALITY CONTROLLED BY THE NATIONAL WEATHER SERVICE. USE DATA WITH CAUTION...ESPECIALLY DEWPOINT OBSERVATIONS. SCZ027-030-031-034>040-042>050-291300- ...SOUTHEAST SOUTH CAROLINA... CITY SKY/WX TMP DP RH WIND PRES REMARKS N CHARLESTON MOSUNNY 73 68 84 N7 30.15R 6HR MIN TEMP: 71; 6HR MAX TEMP: 73; WATERFRONT PRK N/A 76 73 90 NE8 30.12R MOUNT PLEASANT FAIR 72 70 94 N5 30.15R JOHNS ISLAND FAIR 77 73 88 N6 30.15R PINOPOLIS N/A 75 70 83 E10 30.09R MONCKS CORNER FAIR 72 66 83 CALM 30.17R SUMMERVILLE FAIR 70 70 100 N3 30.18R BEAUFORT MCAS PTSUNNY 74 70 87 NE7 30.15R 6HR MIN TEMP: 73; 6HR MAX TEMP: 75; BEAUFORT ARPT FAIR 77 72 83 NE9 30.14R HILTON HEAD IS PTSUNNY 75 72 88 N7 30.16R WALTERBORO PTSUNNY 73 68 83 NE3 30.18R ALLENDALE FAIR 70 66 88 CALM 30.17R ...SOUTHERN MIDLANDS AND PEE DEE... CITY SKY/WX TMP DP RH WIND PRES REMARKS GEORGETOWN NOT AVBL KINGSTREE NOT AVBL ORANGEBURG PTSUNNY 68 63 84 NE7 30.19R 6HR MIN TEMP: 65; 6HR MAX TEMP: 68; BARNWELL FAIR 70 66 88 NE3 30.19R AIKEN FAIR 64 61 88 NE3 30.23R MANNING FAIR 64 63 94 N5 30.19R COLUMBIA CLOUDY 64 59 83 CALM 30.19R 6HR MIN TEMP: 62; 6HR MAX TEMP: 71; SUMTER PTSUNNY 66 63 88 NE7 30.18R FOG FLORENCE CLOUDY 67 63 87 N5 30.20R 6HR MIN TEMP: 65; 6HR MAX TEMP: 68; MYRTLE BEACH SUNNY 70 63 78 NE8 30.19R N MYRTLE BEACH PTSUNNY 68 65 90 N8 30.17R 6HR MIN TEMP: 67; 6HR MAX TEMP: 70; $$ GAZ063-065-086>088-099>101-113>116-118-119-134>141-150-291300- ...SOUTHEAST GEORGIA... CITY SKY/WX TMP DP RH WIND PRES REMARKS SAVANNAH ARPT LGT RAIN 73 70 90 N7 30.15R 6HR MIN TEMP: 73; 6HR MAX TEMP: 75; 6HR PCP: TRACE; HUNTER AAF CLOUDY 75 75 100 NE2 30.12R 6HR MIN TEMP: 74; 6HR MAX TEMP: 76; 6HR PCP: TRACE; FORT STEWART DRIZZLE 73 72 94 CALM 30.13R 6HR MIN TEMP: 74; 6HR MAX TEMP: 75; 6HR PCP: 0.01; STATESBORO PTSUNNY 72 72 100 CALM 30.16R SYLVANIA CLOUDY 72 71 96 NE3 30.17R CLAXTON NOT AVBL ...CSRA...CENTRAL AND FAR SOUTHEAST GEORGIA... CITY SKY/WX TMP DP RH WIND PRES REMARKS THOMSON CLOUDY 67 67 100 CALM 30.23R AUGUSTA-BUSH CLOUDY 68 66 93 N3 30.18R 6HR MIN TEMP: 65; 6HR MAX TEMP: 69; AUGUSTA-DANIEL CLOUDY 72 63 73 E5 30.19R SWAINSBORO FAIR N/A N/A N/A E3 30.17R VIDALIA CLOUDY 73 70 88 NE5 30.16R EASTMAN RAIN 73 73 100 CALM 30.19R HAZLEHURST FAIR 75 75 100 E3 30.13R ALMA CLOUDY 74 72 93 E5 30.13R 6HR MIN TEMP: 74; 6HR MAX TEMP: 75; WAYCROSS CLOUDY 77 76 98 SE7 30.13R JESUP HVY RAIN 77 75 94 S5 30.15R BAXLEY FAIR 77 73 88 E3 30.13R BRUNSWICK CLOUDY 70 68 94 NE10 30.15S SAINT SIMONS LGT RAIN 73 72 96 N9 30.13R 6HR MIN TEMP: 73; 6HR MAX TEMP: 81; 6HR PCP: 0.27; $$ SCZ027-028-034-036>038-045-046-048>050-GAZ119-141-291300- ...LAKE AND SUPPLEMENTAL COASTAL OBSERVATIONS... STATION/POSITION TIME TEMP WIND PRES WAVE SWELL AIR SEA DIR/SP/G HT/PER HT/PER/DIR (UTC) (F) (DEG/KT/KT) (MB) (FT/S) (FT/S/D) UPR LAKE MARION NOT AVBL WINYAH BAY NOT AVBL LAKE MURRAY 1100 68 CALM / 2 1021.3R ACE BASIN NERRS NOT AVBL FORT PULASKI NOT AVBL SAPELO ISLAND 1100 77 10/ 5 1019.0S $$ ANZ835-935-AMZ111-154-330-350-352-354-370-450-454-472-291300- ...C-MAN AND BUOY OBSERVATIONS... STATION/POSITION TIME TEMP WIND PRES WAVE SWELL AIR SEA DIR/SP/G HT/PER HT/PER/DIR (UTC) (F) (DEG/KT/KT) (MB) (FT/S) (FT/S/D) BUOY 41004 1150 81 85 60/ 16/ 17 1019.7R 4/ 8 2/ 8 BUOY 41008 1150 82 85 70/ 12/ 14 1019.7R 4/ 6 3/ 60/ 6 FOLLY BEACH CMAN 1100 76 20/ 12/ 14 1020.3R CAPERS NEARSHORE 1108 79 40/ 14/ 19 1020.4R FRIPP NEARSHORE 1100 79 40/ 16/ 17 1019.2R STATION/POSITION TIME TEMP WIND PRES WAVE SWELL AIR SEA DIR/SP/G HT/PER HT/PER/DIR (UTC) (F) (DEG/KT/KT) (MB) (FT/S) (FT/S/D) 5E ST. MARYS GA 1121 86 N/A 3/12 2/110/12 FRYING PAN BUOY 1150 80 81 40/ 16/ 17 1020.4R 4/ 6 2/140/11 BUOY 41025 1150 78 82 40/ 16/ 17 1020.5R 5/11 3/100/11 CAPE LOOKOUT NC 1100 78 40/ 20/ 22 1020.2R BUOY 41002 1150 83 83 200/ 12/ 14 1020.2R 5/11 3/100/11 BUOY 41010 1120 83 85 120/ 10/ 12 1018.8R ST AUGUSTINE FL 1200 80 85 320/ 2/ 2 1019.8R $$

USA.gov is the U.S. government's official web portal to all federal, state and local government web resources and services.